Location: Newark
(3.0500°N, 36.0167°E)
Time: 20:17:33
(UTC+00:00)

A-11 Canister half - Pass Details

Date: 25 August 2019
Orbit: 1527 x 1682 km, 47.3° (Epoch: 22 October)

Event Time Altitude Azimuth Distance (km) Brightness Sun altitude
Rises 16:03:33 0° 334° (NNW) 4,912 12.2 -5.7°
Reaches altitude 10° 16:07:04 10° 342° (NNW) 3,914 11.5 -6.5°
Maximum altitude 16:16:11 39° 48° (NE) 2,287 9.7 -8.8°
Enters shadow 16:24:31 12° 112° (ESE) 3,673 10.3 -10.8°
Drops below altitude 10° 16:25:03 10° 114° (ESE) 3,821 - -10.9°
Sets 16:28:24 0° 121° (ESE) 4,785 - -11.8°
